Weather History for KAAA - December, 2012

Change the Weather History Date:

Friday, December 7, 2012

  Actual Average (KSPI) Record (KSPI)
Temperature  
Mean Temperature 45 °F 33 °F  
Max Temperature 47 °F 41 °F 67 °F (1916)
Min Temperature 43 °F 25 °F -7 °F (1882)
Degree Days  
Heating Degree Days 20 32  
Month to date heating degree days 216  
Since 1 July heating degree days 1284  
Cooling Degree Days 0 0  
Month to date cooling degree days 0  
Year to date cooling degree days 1122  
Moisture  
Dew Point 45 °F    
Average Humidity 95    
Maximum Humidity 100    
Minimum Humidity 91    
Precipitation  
Precipitation 0.13 in 0.10 in 1.00 in (1987)
Month to date precipitation 0.66  
Year to date precipitation 35.57  
Snow  
Snow 0.00 in 0.20 in 3.70 in (1909)
Month to date snowfall 0.9  
Since 1 July snowfall 1.5  
Snow Depth -    
Sea Level Pressure  
Sea Level Pressure 29.89 in    
Wind  
Wind Speed 3 mph (NE)    
Max Wind Speed 8 mph    
Max Gust Speed -    
Visibility 3 miles    
Events Rain    
T = Trace of Precipitation, MM = Missing Value Source: NWS Daily Summary

Daily Weather History Graph

Daily Weather History Graph

Search for Another Location

Airport or City:

Trip Planner

Search our weather history database for the weather conditions in past years. The results will help you decide how hot, cold, wet, or windy it might be!

Date:

Astronomy

Dec. 07, 2012 Rise Set
Actual Time 7:06 AM CST 4:31 PM CST
Civil Twilight 6:36 AM CST 5:01 PM CST
Nautical Twilight 6:02 AM CST 5:35 PM CST
Astronomical Twilight 5:29 AM CST 6:08 PM CST
Moon 12:25 AM CST (12/7) 12:28 PM CST (12/7)
Length of Visible Light 10h 25m
Length of Day
9h 24m
Last Quarter, 38% of the Moon is Illuminated
Dec 7
Last Quarter
Dec 13
New
Dec 19
First Quarter
Dec 28
Full
Jan 4
Last Quarter

Hourly Weather History & Observations

Time (CST) Temp. Windchill Dew Point Humidity Pressure Visibility Wind Dir Wind Speed Gust Speed Precip Events Conditions
12:15 AM 45.5 °F - 43.0 °F 91% 29.94 in 7.0 mi Calm Calm - N/A Rain Rain
12:35 AM 45.3 °F 44.0 °F 42.8 °F 91% 29.93 in 7.0 mi East 3.5 mph - 0.01 in Rain Light Rain
12:55 AM 44.8 °F 41.6 °F 43.0 °F 93% 29.94 in 5.0 mi South 5.8 mph - 0.02 in Rain Light Rain
1:15 AM 45.0 °F - 43.5 °F 95% 29.95 in 5.0 mi Calm Calm - N/A   Overcast
1:35 AM 45.5 °F - 43.7 °F 93% 29.95 in 5.0 mi Calm Calm - N/A   Overcast
1:55 AM 45.5 °F - 43.9 °F 94% 29.95 in 5.0 mi Calm Calm - N/A   Overcast
2:15 AM 45.5 °F - 43.7 °F 93% 29.95 in 5.0 mi Calm Calm - N/A   Overcast
2:35 AM 45.1 °F - 43.7 °F 95% 29.95 in 4.0 mi Calm Calm - N/A Rain Light Rain
2:55 AM 45.0 °F 43.5 °F 43.7 °F 95% 29.94 in 3.0 mi North 3.5 mph - 0.01 in Rain Light Rain
3:15 AM 45.0 °F 41.8 °F 43.7 °F 95% 29.92 in 3.0 mi North 5.8 mph - 0.01 in Rain Light Rain
3:35 AM 45.0 °F 41.8 °F 43.7 °F 95% 29.92 in 4.0 mi North 5.8 mph - 0.03 in Rain Light Rain
3:55 AM 45.1 °F 43.7 °F 43.9 °F 95% 29.92 in 4.0 mi North 3.5 mph - 0.04 in Rain Light Rain
4:15 AM 45.0 °F - 43.7 °F 95% 29.93 in 2.5 mi Calm Calm - 0.01 in Rain Light Rain
4:35 AM 44.8 °F 43.3 °F 43.7 °F 96% 29.92 in 2.5 mi NNE 3.5 mph - 0.02 in Rain Light Rain
4:55 AM 44.8 °F 41.6 °F 43.7 °F 96% 29.91 in 2.5 mi NE 5.8 mph - 0.03 in Rain Light Rain
5:15 AM 45.0 °F 41.8 °F 43.9 °F 96% 29.91 in 4.0 mi SSE 5.8 mph - 0.01 in   Light Drizzle
5:35 AM 45.0 °F - 43.9 °F 96% 29.91 in 3.0 mi Calm Calm - 0.01 in Rain Light Rain
5:55 AM 44.8 °F 43.3 °F 43.7 °F 96% 29.91 in 3.0 mi ENE 3.5 mph - 0.01 in   Overcast
6:15 AM 44.6 °F - 43.5 °F 96% 29.92 in 2.5 mi Calm Calm - N/A   Scattered Clouds
6:35 AM 43.9 °F 41.3 °F 43.0 °F 97% 29.91 in 1.8 mi North 4.6 mph - N/A   Mostly Cloudy
6:55 AM 44.2 °F - 43.3 °F 97% 29.91 in 2.0 mi Calm Calm - N/A   Overcast
7:15 AM 44.2 °F - 43.3 °F 97% 29.91 in 2.5 mi Calm Calm - N/A   Scattered Clouds
7:35 AM 44.2 °F 41.8 °F 43.3 °F 97% 29.92 in 2.5 mi North 4.6 mph - N/A   Scattered Clouds
7:55 AM 44.2 °F 41.0 °F 43.3 °F 97% 29.92 in 2.5 mi North 5.8 mph - N/A   Mostly Cloudy
8:15 AM 44.6 °F 40.2 °F 43.7 °F 97% 29.92 in 2.5 mi North 8.1 mph - N/A   Overcast
8:35 AM 44.8 °F 41.0 °F 43.7 °F 96% 29.92 in 2.5 mi North 6.9 mph - N/A   Overcast
8:55 AM 45.3 °F 41.6 °F 44.1 °F 95% 29.93 in 2.5 mi NNE 6.9 mph - N/A   Overcast
9:15 AM 45.7 °F 42.7 °F 44.2 °F 95% 29.93 in 2.5 mi NNE 5.8 mph - N/A   Overcast
9:35 AM 46.0 °F 42.5 °F 44.4 °F 94% 29.93 in 2.5 mi NE 6.9 mph - N/A   Overcast
9:55 AM 46.0 °F 41.9 °F 44.2 °F 93% 29.92 in 3.0 mi ENE 8.1 mph - N/A   Overcast
10:15 AM 46.4 °F 42.9 °F 44.6 °F 93% 29.92 in 2.5 mi East 6.9 mph - N/A   Overcast
10:35 AM 46.4 °F 42.4 °F 44.6 °F 93% 29.92 in 2.5 mi East 8.1 mph - N/A   Overcast
10:55 AM 46.6 °F - 44.8 °F 93% 29.91 in 2.5 mi ENE 6.9 mph - N/A   Overcast
11:15 AM 46.9 °F - 45.0 °F 93% 29.90 in 2.5 mi East 5.8 mph - N/A   Overcast
11:35 AM 46.9 °F - 45.0 °F 93% 29.89 in 2.5 mi East 4.6 mph - N/A   Overcast
11:55 AM 47.1 °F - 45.0 °F 92% 29.89 in 2.5 mi NE 4.6 mph - N/A   Overcast
12:15 PM 47.3 °F - 45.3 °F 93% 29.88 in 2.0 mi ENE 4.6 mph - N/A Rain Light Rain
12:35 PM 47.5 °F - 45.7 °F 93% 29.87 in 1.5 mi ENE 5.8 mph - N/A   Drizzle
12:55 PM 47.5 °F - 45.9 °F 94% 29.86 in 1.2 mi NE 5.8 mph - N/A   Light Drizzle
1:15 PM 47.3 °F - 45.9 °F 95% 29.86 in 1.5 mi NE 5.8 mph - N/A   Overcast
1:35 PM 47.3 °F - 45.9 °F 95% 29.85 in 1.8 mi NE 5.8 mph - N/A   Overcast
1:55 PM 47.5 °F - 46.0 °F 95% 29.85 in 1.5 mi NNE 8.1 mph - N/A Rain Rain
2:15 PM 47.5 °F - 46.0 °F 95% 29.85 in 1.5 mi NNE 6.9 mph - N/A Rain Rain
2:35 PM 47.7 °F - 46.2 °F 95% 29.84 in 1.5 mi NNE 6.9 mph - N/A Rain Rain
2:55 PM 47.5 °F - 46.0 °F 95% 29.84 in 1.5 mi NE 6.9 mph - 0.01 in Rain Light Rain
3:15 PM 47.7 °F - 46.4 °F 95% 29.84 in 1.5 mi NE 8.1 mph - N/A Rain Light Rain
3:35 PM 47.7 °F - 46.4 °F 95% 29.84 in 1.5 mi ENE 6.9 mph - N/A Rain Rain
3:55 PM 47.5 °F - 46.4 °F 96% 29.84 in 1.5 mi NE 6.9 mph - 0.01 in Rain Rain
4:15 PM 47.5 °F - 46.2 °F 95% 29.84 in 1.8 mi NE 4.6 mph - N/A   Overcast
4:35 PM 47.3 °F - 46.0 °F 95% 29.85 in 2.5 mi NNE 6.9 mph - N/A   Overcast
4:55 PM 47.3 °F - 45.7 °F 94% 29.85 in 2.5 mi NNE 5.8 mph - N/A   Overcast
5:15 PM 47.3 °F - 45.5 °F 93% 29.85 in 3.0 mi NNE 3.5 mph - N/A   Overcast
5:35 PM 47.3 °F - 45.7 °F 94% 29.86 in 2.5 mi NE 3.5 mph - N/A   Overcast
5:55 PM 46.9 °F - 45.5 °F 95% 29.85 in 2.5 mi ENE 4.6 mph - N/A   Overcast
6:15 PM 46.9 °F - 45.5 °F 95% 29.86 in 2.5 mi ENE 5.8 mph - N/A   Overcast
6:35 PM 46.6 °F - 45.3 °F 95% 29.86 in 2.0 mi ENE 3.5 mph - N/A   Overcast
6:55 PM 46.4 °F - 46.4 °F 100% 29.87 in 2.0 mi Calm Calm - N/A   Overcast
7:15 PM 46.6 °F - 45.5 °F 96% 29.87 in 2.5 mi Calm Calm - N/A   Overcast
7:35 PM 46.6 °F - 45.5 °F 96% 29.87 in 2.0 mi Calm Calm - N/A   Overcast
7:55 PM 46.6 °F - 45.5 °F 96% 29.86 in 2.0 mi Calm Calm - N/A   Overcast
8:15 PM 46.4 °F 45.2 °F 45.5 °F 97% 29.86 in 2.0 mi ENE 3.5 mph - N/A   Overcast
8:35 PM 46.4 °F 44.3 °F 45.5 °F 97% 29.86 in 1.8 mi East 4.6 mph - N/A   Overcast
8:55 PM 46.4 °F 43.5 °F 45.3 °F 96% 29.85 in 2.0 mi East 5.8 mph - N/A   Overcast
9:15 PM 46.0 °F - 45.0 °F 96% 29.85 in 2.5 mi Calm Calm - N/A   Overcast
9:35 PM 46.4 °F - 45.1 °F 95% 29.85 in 2.5 mi Calm Calm - N/A   Overcast
9:55 PM 46.4 °F - 45.3 °F 96% 29.86 in 2.5 mi Calm Calm - N/A   Overcast
10:15 PM 46.4 °F - 45.3 °F 96% 29.86 in 2.5 mi Calm Calm - N/A   Overcast
10:35 PM 46.4 °F - 45.5 °F 97% 29.87 in 2.5 mi Calm Calm - N/A   Overcast
10:55 PM 46.4 °F - 45.5 °F 97% 29.87 in 2.5 mi Calm Calm - N/A Rain Light Rain
11:15 PM 46.4 °F - 45.3 °F 96% 29.86 in 2.5 mi Calm Calm - N/A Rain Rain
11:35 PM 46.4 °F - 45.1 °F 95% 29.86 in 2.0 mi Calm Calm - N/A   Overcast
11:55 PM 46.4 °F - 45.5 °F 97% 29.87 in 2.0 mi Calm Calm - N/A   Overcast